Regional Weather Roundup
Issued by NWS

Home | Current Version | Previous Version | Graphics & Text | Print | Product List | Glossary On
Versions: 1 2 3 4 5 6 7 8 9 10 11 12 13 14 15 16 17 18 19 20 21 22 23 24 25 26 27 28 29 30 31 32 33 34 35 36 37 38 39 40 41 42 43 44 45 46 47 48 49 50
000
ASUS43 KBIS 191802
RWRND

NORTH DAKOTA REGIONAL WEATHER ROUNDUP
NATIONAL WEATHER SERVICE BISMARCK ND
100 PM CDT TUE SEP 19 2017

NOTE: "FAIR" INDICATES FEW OR NO CLOUDS BELOW 12,000 FEET WITH NO
SIGNIFICANT WEATHER AND/OR OBSTRUCTIONS TO VISIBILITY.


NDZ001>003-009>011-017-191900-
NORTHWEST NORTH DAKOTA

CITY           SKY/WX    TMP DP  RH WIND       PRES   REMARKS
WILLISTON      CLOUDY    62  53  72 W12       29.46S
6HR MIN TEMP:  56; 6HR MAX TEMP:  62; 6HR PCP:  0.02;

MINOT          CLOUDY    68  60  75 SE14G23   29.45R
MINOT AFB      CLOUDY    67  60  79 S16G22    29.44R
$$

NDZ018>021-031>035-040>046-191900-
SOUTHWEST NORTH DAKOTA

CITY           SKY/WX    TMP DP  RH WIND       PRES   REMARKS
BISMARCK       CLOUDY    70  43  37 S20       29.49R
6HR MIN TEMP:  62; 6HR MAX TEMP:  70; 6HR PCP:  0.03;

DICKINSON      CLOUDY    59  51  75 W14       29.51R
GARRISON         N/A     67  62  84 S14       29.46S
6HR MIN TEMP:  60; 6HR MAX TEMP:  67; 6HR PCP:  0.01;

HETTINGER ARPT PTSUNNY   62  48  60 W12       29.55R
$$

NDZ004>008-012>016-024-026-027-054-191900-
NORTHEAST NORTH DAKOTA

CITY           SKY/WX    TMP DP  RH WIND       PRES   REMARKS
GRAND FORKS    CLOUDY    69  63  81 SE20G29   29.63F
GRND FRKS AFB  CLOUDY    65  63  94 SE16G23   29.62F
DEVILS LAKE    CLOUDY    64  61  90 SE25      29.57S
$$

NDZ022-023-025-028>030-036>039-047>053-191900-
SOUTHEAST NORTH DAKOTA

CITY           SKY/WX    TMP DP  RH WIND       PRES   REMARKS
FARGO          PTSUNNY   78  64  61 S23G31    29.64F
6HR MIN TEMP:  61; 6HR MAX TEMP:  78;

$$




USA.gov is the U.S. government's official web portal to all federal, state and local government web resources and services.